User: anonymous   Login
Location: Unspecified
(0.0000°N, 0.0000°E)
Time: 22:26:02
(UTC+00:00)
Language:

STARLINK-35191 - Orbit

View from above orbital plane
View from above orbital plane
View from above satellite
View from above satellite

Ground track
Ground track

The orbit is defined by the following mean orbital elements,

1 65594U          26145.47377382 +.00000000 +00000-0 +58934-3 0 00003
2 65594  97.4522 213.9493 0002132 133.8289 226.3115 15.05667400    07
Epoch (UTC): 25 May 2026 11:22:14
Eccentricity: 0.0002132
inclination: 97.4522°
perigee height: 548 km
apogee height: 551 km
right ascension of ascending node: 213.9493°
argument of perigee: 133.8289°
revolutions per day: 15.05667400
mean anomaly at epoch: 226.3115°

The dashed part of the orbit path shows where the satellite is in the earth's shadow,  

DLR